Regional Weather Roundup
Issued by NWS

Home | Current Version | Previous Version | Graphics & Text | Print | Product List | Glossary On
Versions: 1 2 3 4 5 6 7 8 9 10 11 12 13 14 15 16 17 18 19 20 21 22 23 24 25 26 27 28 29 30 31 32 33 34 35 36 37 38 39 40 41 42 43 44 45 46 47 48 49 50
000
ASUS43 KIND 250609
RWRIN

WEATHER ROUNDUP FOR INDIANA
NATIONAL WEATHER SERVICE INDIANAPOLIS IN
200 AM EDT MON SEP 25 2017

NOTE: "FAIR" INDICATES FEW OR NO CLOUDS BELOW 12,000 FEET WITH NO
SIGNIFICANT WEATHER AND/OR OBSTRUCTIONS TO VISIBILITY.

* - STATION DOES NOT REPORT WEATHER SUCH AS PRECIPITATION OR FOG.

+ - STATION NOT QUALITY CONTROLLED BY THE NATIONAL WEATHER SERVICE.
    USE DATA WITH CAUTION...ESPECIALLY DEWPOINT AND RELATIVE
    HUMIDITY OBSERVATIONS.

INZ001>003-010>013-019-020-250700-
NORTHWEST INDIANA

CITY           SKY/WX    TMP DP  RH WIND       PRES   REMARKS
GARY /AIRPORT/ PTCLDY    64  60  88 SE3       30.01F
KNOX *+        PTCLDY    59  57  94 SE3       30.02S
LA PORTE +     PTCLDY    63  59  87 CALM      30.04S
6HR MIN TEMP:  62; 6HR MAX TEMP:  74;

MICHIGAN CITY+ PTCLDY    63  61  94 CALM      30.03S
MONTICELLO +   PTCLDY    66  59  77 CALM      30.02S
6HR MIN TEMP:  65; 6HR MAX TEMP:  79;

RENSSELAER +   PTCLDY    68  52  56 CALM      30.03S
VALPARAISO     PTCLDY    67  58  72 CALM      30.03S
6HR MIN TEMP:  65; 6HR MAX TEMP:  82;


$$

LMZ046-743>745-250700-
SOUTHERN LAKE MICHIGAN

STATION/POSITION TIME  TEMP    WIND        PRES    WAVE
                       AIR SEA DIR/SP/G            HT
                 (UTC) (F)     (DEG/KT/KT) (MB)    (FT)
BURNS HARBOR     0540   78     150/  7/ 11 1016.6F
MICHIGAN CITY    0510   74     130/  7/  8   N/A
5NW MICH CITY    0600   73 72  150/  6/  8   N/A     1

$$

INZ004-005-014>016-021>024-250700-
NORTH CENTRAL INDIANA

CITY           SKY/WX    TMP DP  RH WIND       PRES   REMARKS
GOSHEN         CLEAR     63  57  81 CALM      30.05S
6HR MIN TEMP:  63; 6HR MAX TEMP:  75;

LOGANSPORT +   CLOUDY    63  57  82 E3        30.05R
PERU/GRISSOM   MOCLDY    66  57  71 SE5       30.04R
6HR MIN TEMP:  66; 6HR MAX TEMP:  78;

SOUTH BEND     PTCLDY    65  61  87 CALM      30.04S
6HR MIN TEMP:  64; 6HR MAX TEMP:  82;

WARSAW +       CLEAR     61  59  94 E5        30.05S

$$

INZ006>009-017-018-025>027-250700-
NORTHEAST INDIANA

CITY           SKY/WX    TMP DP  RH WIND       PRES   REMARKS
AUBURN +       CLEAR     63  61  94 E3        30.07S
FORT WAYNE     PTCLDY    64  57  78 CALM      30.06R
6HR MIN TEMP:  63; 6HR MAX TEMP:  78;

HUNTINGTON +   CLOUDY    63  59  86 CALM      30.05S
6HR MIN TEMP:  62; 6HR MAX TEMP:  77;

KENDALLVILLE + CLEAR     64  62  93 CALM      30.07S

$$

INZ028-029-035-036-043>045-051>053-250700-
WEST CENTRAL INDIANA

CITY           SKY/WX    TMP DP  RH WIND       PRES   REMARKS
CRAWFORDSVL +  CLEAR     63  55  77 CALM      30.03
GREENCASTLE +  CLEAR     64  54  68 CALM      30.04S
LAFAYETTE      CLEAR     63  60  90 CALM      30.02S
6HR MIN TEMP:  63; 6HR MAX TEMP:  76;

TERRE HAUTE    CLEAR     61  56  83 NE3       30.01F
6HR MIN TEMP:  61; 6HR MAX TEMP:  79;


$$

INZ030>032-037>040-046>048-054>057-064-065-250700-
CENTRAL INDIANA

CITY           SKY/WX    TMP DP  RH WIND       PRES   REMARKS
CP ATTERBURY + CLEAR     57  55  94 SW3       30.04F
FISHERS *+     CLEAR     61  61 100 CALM      30.05S
FRANKFORT +    CLOUDY    65  60  84 SE3       30.06S
6HR MIN TEMP:  63; 6HR MAX TEMP:  77;

GREENWOOD *+   CLEAR     64  61  91 CALM      30.05S
INDIANAPOLIS   PTCLDY    71  57  61 E3        30.04S
6HR MIN TEMP:  69; 6HR MAX TEMP:  81;

-EAGLE CREEK   CLEAR     65  58  78 CALM      30.03F
6HR MIN TEMP:  65; 6HR MAX TEMP:  83;

KOKOMO +       CLOUDY    63  59  87 SE3       30.05S
6HR MIN TEMP:  63; 6HR MAX TEMP:  77;

MARION +       CLEAR     63  55  77 SE3       30.06R
MT COMFORT *+  CLEAR     59  55  88 CALM      30.05S
SHELBYVILLE    CLEAR     62  56  80 E3        30.04S
6HR MIN TEMP:  62; 6HR MAX TEMP:  77;

ZIONSVILLE +   CLOUDY    59  58  96 CALM      30.06S
6HR MIN TEMP:  59; 6HR MAX TEMP:  73;


$$

INZ033-034-041-042-049-050-058-059-250700-
EAST CENTRAL INDIANA

CITY           SKY/WX    TMP DP  RH WIND       PRES   REMARKS
MUNCIE         PTCLDY    60  56  86 S3        30.06S
6HR MIN TEMP:  60; 6HR MAX TEMP:  70;

RICHMOND +     CLEAR     63  54  72 CALM      30.08S

$$

INZ060-061-067>069-081>083-085>088-250700-
SOUTHWEST INDIANA

CITY           SKY/WX    TMP DP  RH WIND       PRES   REMARKS
EVANSVILLE     MOCLDY    70  67  90 CALM      30.00S
6HR MIN TEMP:  70; 6HR MAX TEMP:  82;

HUNTINGBURG +  PTCLDY    68  64  88 CALM      30.01S FOG
6HR MIN TEMP:  68; 6HR MAX TEMP:  81;

WASHINGTON +   CLEAR     63  60  90 CALM      30.00S
6HR MIN TEMP:  63; 6HR MAX TEMP:  76;


$$

INZ062-063-066-070>080-084-089>092-250700-
SOUTH CENTRAL AND SOUTHEAST INDIANA

CITY           SKY/WX    TMP DP  RH WIND       PRES   REMARKS
BEDFORD +      CLEAR     63  57  82 CALM      30.01F
BLOOMINGTON    CLEAR     60  56  86 CALM      30.03F
6HR MIN TEMP:  60; 6HR MAX TEMP:  75;

MADISON *+     CLEAR     63  59  88 CALM      30.05F
NORTH VERNON + CLEAR     59  57  94 CALM      30.04F
SEYMOUR +      CLEAR     63  59  88 CALM      30.03S

$$





USA.gov is the U.S. government's official web portal to all federal, state and local government web resources and services.